Location: *
(41.0669°N, 1.3828°W)
Time: 01:04:59
(UTC+00:00)

Daily predictions for brighter satellites

Satellite Brightness Start Highest point End
(mag) Time Altitude Azimuth Time Altitude Azimuth Time Altitude Azimuth
Cosmos 2227 Rocket 4.5 04:13:54 14° NNE 04:13:54 14° NNE 04:14:42 10° NNE
CZ-4C R/B 3.4 04:27:04 41° N 04:29:39 59° NE 04:37:46 10° SE
Cosmos 407 Rocket 4.4 04:29:54 42° NE 04:30:46 46° ENE 04:35:54 10° SE
Cosmos 1464 Rocket 4.0 04:24:35 10° S 04:30:47 79° E 04:36:56 10° N
GEOS 3 Rocket 3.9 04:32:11 10° SE 04:37:12 61° NE 04:37:16 61° NE
USA 234 3.3 04:30:56 10° NE 04:36:56 59° NNW 04:36:56 59° NNW
Cosmos 1933 Rocket 4.4 04:42:20 10° SSE 04:46:29 49° E 04:50:41 10° NNE
SL-16 R/B 2.1 04:47:07 75° SSW 04:47:07 75° SSW 04:52:25 10° SSE
ATLAS 5 CENTAUR R/B 3.9 05:01:11 14° N 05:01:11 14° N 05:02:08 10° NNE
Cosmos 1461 4.4 04:57:20 29° NNE 04:58:21 32° NE 05:02:17 10° ESE
Meteor 1-27 Rocket 3.7 04:58:46 38° NNW 05:01:11 79° W 05:07:04 10° S
Lacrosse 5 2.8 05:02:53 35° SSW 05:02:53 35° SSW 05:06:24 10° SSE
Cosmos 724 4.2 05:00:25 38° SW 05:02:56 82° WNW 05:08:56 10° NNE
Cosmos 1513 Rocket 4.5 04:57:04 10° SSW 05:03:22 60° W 05:09:43 10° N
Nadezhda 4 Rocket 3.9 05:00:25 10° N 05:06:41 89° E 05:12:51 10° S
ALOS 3.3 05:04:58 10° NNE 05:09:30 47° E 05:14:00 10° S
COSMO-SKYMED 1 2.9 05:06:22 10° SSE 05:10:39 64° ENE 05:13:08 24° N
Cosmos 1624 Rocket 3.9 05:07:20 23° SSW 05:10:43 74° WNW 05:16:05 10° NNE
Cosmos 2084 Rocket 4.2 05:11:26 37° N 05:12:44 50° NE 05:17:01 10° SE
Cosmos 1932 4.4 05:07:38 10° SSW 05:13:57 89° ESE 05:20:26 10° NNE
Cosmos 2056 Rocket 3.3 05:13:06 26° SW 05:15:56 68° WNW 05:21:03 10° NNE
Okean O Rocket 3.0 05:13:58 10° NNE 05:18:06 39° E 05:22:13 10° SSE
Cosmos 1190 Rocket 3.9 05:19:25 37° NNW 05:21:31 73° WSW 05:26:43 10° S
Cosmos 676 Rocket 4.2 05:18:54 18° NNW 05:22:51 69° ENE 05:28:06 10° SSE
Cosmos 2242 Rocket 3.5 05:21:38 35° NNW 05:23:31 73° W 05:27:59 10° S
Cosmos 1862 Rocket 4.3 05:25:01 35° SW 05:25:01 35° SW 05:28:06 10° SSW
FALCON 9 R/B 4.0 05:19:03 25° WSW 05:24:01 63° SSE 05:51:24 10° E
Cosmos 1703 Rocket 3.8 05:22:12 10° N 05:26:35 69° E 05:30:57 10° SSE
Geosat 3.9 05:22:28 10° SSE 05:27:29 72° WSW 05:29:59 30° NW
CZ-4B DEB 4.3 05:22:32 10° NNE 05:28:05 80° ESE 05:33:38 10° SSW
Cosmos 2026 Rocket 4.5 05:22:55 10° N 05:29:01 60° E 05:35:10 10° SSE
Cosmos 1484 Rocket 2.8 05:28:46 10° N 05:32:37 52° WNW 05:36:24 10° SSW
Cosmos 1954 Rocket 4.0 05:29:26 15° NNW 05:33:46 82° ENE 05:39:04 10° SSE
SKYMED 3 4.5 05:30:29 10° S 05:34:47 68° WSW 05:37:33 22° NNW
Cosmos 2263 Rocket 2.3 05:29:33 10° SSW 05:35:07 75° ESE 05:40:41 10° NNE
PSLV R/B 4.0 05:32:21 10° N 05:36:20 51° WNW 05:40:20 10° SSW
Cosmos 1420 Rocket 4.0 05:31:36 10° SSW 05:36:48 85° ESE 05:42:01 10° NNE
Cosmos 1869 Rocket 3.7 05:37:20 10° S 05:41:37 73° E 05:45:58 10° NNE
Cosmos 1634 Rocket 4.0 05:35:56 10° S 05:42:09 88° E 05:48:22 10° N
Cosmos 2034 Rocket 4.4 05:37:15 10° SW 05:43:06 40° WNW 05:49:04 10° N
Cosmos 2227 4.1 05:39:08 10° SSW 05:44:50 69° WNW 05:50:37 10° NNE
Cosmos 2297 Rocket 4.2 05:51:59 10° NNW 05:51:59 10° NNW 05:52:03 10° NNW
FALCON 9 DEB 3.7 05:50:58 26° NNE 05:51:19 27° NNE 05:53:25 10° E
Cosmos 1627 Rocket 4.4 05:46:52 10° N 05:53:07 83° W 05:59:26 10° S
Cosmos 2227 Rocket 4.2 05:55:45 11° NNW 05:55:45 11° NNW 05:56:10 10° NNW
SJ-12 4.3 05:52:20 10° N 05:56:14 41° WNW 06:00:05 10° SW
SKYMED 2 4.1 05:54:51 10° SSW 05:58:50 36° W 06:01:49 16° NW
Meteor 1-14 Rocket 4.3 05:53:51 10° S 05:59:46 86° W 06:05:47 10° N
STARLINK 1044 4.1 05:58:28 20° NNW 05:59:48 30° NNE 06:02:24 10° E
CZ-4B R/B 3.2 05:55:23 10° NNE 06:00:59 82° WNW 06:06:38 10° SSW
Cosmos 1452 Rocket 3.4 05:57:22 10° SSW 06:02:38 73° WNW 06:07:56 10° NNE
Cosmos 1346 Rocket 2.9 05:59:13 10° S 06:03:03 73° E 06:06:56 10° NNE
Meteor 1-25 Rocket 4.3 05:57:48 10° SSW 06:03:15 55° WNW 06:08:49 10° N
DMSP B5D1-3 4.5 05:58:43 10° SSE 06:03:53 82° WSW 06:09:04 10° NNW
FENGYUN 3A 3.7 05:58:41 10° N 06:03:57 56° WNW 06:09:11 10° SSW
SL-23 DEB 3.2 06:05:06 10° SW 06:08:21 84° NW 06:11:38 10° NE
NOAA 6 4.0 06:03:37 10° N 06:08:42 66° WNW 06:13:46 10° SSW
PAYLOAD B 4.4 06:04:40 10° N 06:09:59 51° WNW 06:15:19 10° SW
Cosmos 1850 Rocket 4.3 06:05:58 10° NNW 06:11:20 72° ENE 06:16:39 10° SSE
Cosmos 1092 Rocket 4.3 06:05:46 10° NNW 06:11:33 44° W 06:17:18 10° SSW
Timation 1 Rocket 4.3 06:06:56 10° SSW 06:12:51 70° WNW 06:18:50 10° NNE
Cosmos 1140 Rocket 4.4 06:12:42 14° NW 06:16:18 29° W 06:20:44 10° SSW
FALCON 9 DEB 2.6 06:15:24 20° NW 06:16:47 55° NE 06:19:07 10° ESE
Cosmos 1943 3.2 06:12:12 10° NNW 06:17:46 67° WSW 06:23:19 10° SSE
CZ-4C R/B 3.7 06:12:17 14° NW 06:18:09 36° WSW 06:25:31 10° S
USA 234 4.3 06:14:16 10° NE 06:19:31 27° NNW 06:24:18 12° WNW
H-2A R/B 3.1 06:16:15 10° NNE 06:19:59 66° E 06:23:43 10° S
PSLV R/B 2.3 06:19:56 18° W 06:21:33 88° N 06:24:00 10° E
CZ-4 R/B 4.4 06:20:06 10° NE 06:22:33 16° E 06:25:02 10° SE
FALCON 9 DEB 2.3 06:21:27 17° NW 06:23:05 68° NE 06:25:27 10° ESE
Okean 1-7 3.8 06:21:28 10° NNW 06:25:21 31° W 06:29:12 10° SSW
Meteor 1-19 Rocket 4.2 06:20:13 10° NNW 06:25:42 71° W 06:31:16 10° S
ADEOS Rocket 3.7 06:18:43 10° SSE 06:25:51 69° ENE 06:32:17 10° N
STARLINK 1050 3.6 06:27:04 11° NW 06:30:15 55° NE 06:33:37 10° ESE
Cosmos 371 Rocket 3.7 06:26:49 10° S 06:31:36 68° ESE 06:36:26 10° NNE
STARLINK 1055 3.5 06:29:46 11° NW 06:33:03 59° NE 06:36:26 10° ESE
STARLINK 1022 3.4 06:31:42 10° NW 06:35:05 61° NE 06:38:29 10° ESE
Cosmos 1603 4.4 06:31:49 10° NW 06:36:57 34° WSW 06:42:01 10° SSW
Cosmos 1461 4.1 06:33:46 10° WNW 06:37:19 26° WSW 06:41:00 10° S
STARLINK 1042 3.3 06:35:06 10° NW 06:38:31 66° NE 06:41:55 10° ESE
SMAP 3.0 06:34:22 10° N 06:39:02 80° WNW 06:43:40 10° SSW
Okean 1 4.2 06:35:51 10° NNW 06:39:15 28° W 06:42:39 10° SSW
Meteor 2-4 Rocket 3.6 06:34:33 10° N 06:40:06 84° W 06:45:30 10° S
STARLINK 1056 3.3 06:37:57 10° NW 06:41:24 70° NE 06:44:49 10° ESE
Cosmos 2221 Rocket 3.8 06:38:46 10° NNW 06:43:01 48° W 06:47:14 10° SSW
Helios 1A Rocket 4.0 06:40:49 10° NNW 06:44:00 23° WNW 06:47:11 10° WSW
STARLINK 1054 3.2 06:40:50 10° NW 06:44:16 75° NE 06:47:41 10° ESE
Cosmos 44 3.2 06:40:45 10° SSW 06:45:33 83° WNW 06:50:08 10° NNE
ALOS 3.6 06:43:21 10° NNW 06:46:33 18° WNW 06:49:44 10° WSW
STARLINK 1062 3.2 06:43:31 10° NW 06:46:58 79° NE 06:50:23 10° SE
NOAA 12 4.4 06:44:40 10° NNE 06:49:56 74° ESE 06:55:09 10° S
STARLINK 1053 3.1 06:46:38 10° NW 06:50:04 85° NE 06:53:31 10° SE
